Location: Limerick
(52.6650°N, 8.6230°W)
Time: 20:40:23
(UTC+01:00)

ISS - Pass Details

Date: 26 May 2017
Orbit: 402 x 409 km, 51.6° (Epoch: 25 May)

Event Time Altitude Azimuth Distance (km) Brightness Sun altitude
Rises 03:58:19 0° 280° (W) 2,331 -0.2 -9.6°
Reaches altitude 10° 04:00:46 10° 262° (W) 1,466 -1.4 -9.4°
Maximum altitude 04:03:13 19° 214° (SW) 1,023 -2.4 -9.2°
Drops below altitude 10° 04:05:39 10° 166° (SSE) 1,457 -1.4 -9.0°
Sets 04:08:04 0° 148° (SSE) 2,311 -0.2 -8.7°
